Location: Newark
(34.9500°N, 139.9667°E)
Time: 05:40:15
(UTC+00:00)

Vanguard 1 Rocket - Pass Details

Date: 14 December 2019
Orbit: 650 x 4226 km, 34.3° (Epoch: 17 January)

Event Time Altitude Azimuth Distance (km) Brightness Sun altitude
Rises 14:41:25 0° 280° (W) 6,557 11.8 -78.2°
Enters shadow 14:42:31 - 280° (W) 6,221 11.6 -78.1°
Reaches altitude 10° 14:46:35 10° 279° (W) 4,953 - -78.0°
Maximum altitude 14:58:46 72° 198° (SSW) 1,421 - -77.2°
Drops below altitude 10° 15:05:01 10° 115° (ESE) 2,661 - -76.5°
Sets 15:07:02 0° 113° (ESE) 3,396 - -76.3°
